Location: Goettingen
(51.5300°N, 9.9433°E)
Time: 04:48:15
(UTC+01:00)

ISS - Pass Details

Date: 13 March 2026
Orbit: 417 x 426 km, 51.6° (Epoch: 16 March)

Event Time Altitude Azimuth Distance (km) Brightness Sun altitude
Rises 19:44:27 0° 223° (SW) 2,374 0.5 -13.7°
Reaches altitude 10° 19:46:42 10° 212° (SSW) 1,510 -0.7 -14.0°
Maximum altitude 19:49:42 30° 150° (SSE) 791 -2.8 -14.5°
Enters shadow 19:50:17 28° 129° (SE) 830 -2.8 -14.5°
